Jonesboro, AR

10:55 PM CDT on April 24, 2017 (GMT -0500)
Jonesboro Municipal

Weather History for KJBR - May, 2014

Change the Weather History Date:

Friday, May 2, 2014

  Actual Average Record
Temperature  
Mean Temperature 56 °F 65 °F  
Max Temperature 70 °F 75 °F 100 °F (1901)
Min Temperature 42 °F 54 °F 32 °F (1909)
Degree Days  
Heating Degree Days 9 3  
Month to date heating degree days 19 3  
Since 1 July heating degree days 4105 3618  
Cooling Degree Days 0 2  
Month to date cooling degree days 0 2  
Year to date cooling degree days 21 49  
Growing Degree Days 6 (Base 50)    
Moisture  
Dew Point 40 °F    
Average Humidity 60    
Maximum Humidity 89    
Minimum Humidity 31    
Precipitation  
Precipitation 0.00 in 0.17 in 2.25 in (2011)
Month to date precipitation 0.00 0.17  
Year to date precipitation 16.70 16.84  
Snow  
Snow 0.00 in 0.00 in - ()
Month to date snowfall 0.0 0.0  
Since 1 July snowfall 5.2 4.8  
Snow Depth 0.00 in    
Sea Level Pressure  
Sea Level Pressure 29.96 in    
Wind  
Wind Speed 5 mph (West)    
Max Wind Speed 20 mph    
Max Gust Speed 23 mph    
Visibility 10 miles    
Events      
T = Trace of Precipitation, MM = Missing Value Source: NWS Daily Summary

Daily Weather History Graph

Daily Weather History Graph

Search for Another Location

Airport or City:

Trip Planner

Search our weather history database for the weather conditions in past years. The results will help you decide how hot, cold, wet, or windy it might be!

Date:

Astronomy

May. 02, 2014 Rise Set
Actual Time 6:09 AM CDT 7:50 PM CDT
Civil Twilight 5:41 AM CDT 8:17 PM CDT
Nautical Twilight 5:08 AM CDT 8:51 PM CDT
Astronomical Twilight 4:33 AM CDT 9:26 PM CDT
Moon 8:48 AM CDT (5/2) 11:11 PM CDT (5/2)
Length of Visible Light 14h 36m
Length of Day
13h 41m
Waxing Crescent, 12% of the Moon is Illuminated
May 2
Waxing Crescent
May 6
First Quarter
May 14
Full
May 21
Last Quarter
May 28
New

Hourly Weather History & Observations

Time (CDT) Temp. Dew Point Humidity Pressure Visibility Wind Dir Wind Speed Gust Speed Precip Events Conditions
12:53 AM 54.0 °F 44.1 °F 69% 30.01 in 10.0 mi Calm Calm - N/A   Overcast
1:53 AM 51.1 °F 41.0 °F 68% 29.99 in 10.0 mi Calm Calm - N/A   Partly Cloudy
2:53 AM 48.0 °F 41.0 °F 77% 29.98 in 10.0 mi NW 3.5 mph - N/A   Clear
3:53 AM 46.9 °F 39.9 °F 77% 29.99 in 10.0 mi NNW 3.5 mph - N/A   Clear
4:53 AM 48.0 °F 39.0 °F 71% 29.99 in 10.0 mi NW 3.5 mph - N/A   Clear
5:53 AM 43.0 °F 39.0 °F 86% 29.99 in 10.0 mi Calm Calm - N/A   Clear
6:53 AM 45.0 °F 41.0 °F 86% 30.00 in 10.0 mi Calm Calm - N/A   Clear
7:53 AM 52.0 °F 42.1 °F 69% 30.02 in 10.0 mi West 3.5 mph - N/A   Clear
8:53 AM 55.9 °F 41.0 °F 57% 30.03 in 10.0 mi Calm Calm - N/A   Clear
9:53 AM 59.0 °F 37.9 °F 46% 30.02 in 10.0 mi WSW 4.6 mph - N/A   Clear
10:53 AM 62.1 °F 39.0 °F 43% 30.01 in 10.0 mi West 6.9 mph - N/A   Clear
11:53 AM 64.9 °F 37.9 °F 37% 30.01 in 10.0 mi SW 13.8 mph 18.4 mph N/A   Unknown
12:53 PM 64.0 °F 39.9 °F 41% 29.98 in 10.0 mi Variable 5.8 mph 19.6 mph N/A   Partly Cloudy
1:53 PM 66.0 °F 39.0 °F 37% 29.96 in 10.0 mi WSW 13.8 mph 19.6 mph N/A   Mostly Cloudy
2:53 PM 66.9 °F 39.0 °F 36% 29.94 in 10.0 mi WNW 13.8 mph 20.7 mph N/A   Mostly Cloudy
3:53 PM 68.0 °F 39.9 °F 36% 29.92 in 10.0 mi Variable 5.8 mph - N/A   Scattered Clouds
4:53 PM 69.1 °F 37.9 °F 32% 29.91 in 10.0 mi SW 9.2 mph - N/A   Mostly Cloudy
5:53 PM 70.0 °F 37.0 °F 30% 29.90 in 10.0 mi SW 10.4 mph - N/A   Clear
6:53 PM 68.0 °F 37.9 °F 33% 29.89 in 10.0 mi SW 6.9 mph - N/A   Clear
7:53 PM 64.9 °F 39.9 °F 40% 29.90 in 10.0 mi South 3.5 mph - N/A   Mostly Cloudy
8:53 PM 55.0 °F 45.0 °F 69% 29.91 in 10.0 mi Calm Calm - N/A   Clear
9:53 PM 54.0 °F 44.1 °F 69% 29.91 in 10.0 mi Calm Calm - N/A   Clear
10:53 PM 51.1 °F 45.0 °F 80% 29.93 in 10.0 mi Calm Calm - N/A   Clear
11:53 PM 50.0 °F 44.1 °F 80% 29.94 in 10.0 mi Calm Calm - N/A   Clear